Saginaw Browne, MI

3:01 AM EDT on August 21, 2017 (GMT -0400)
Saginaw County-Browne

Weather History for KHYX - September, 2012

Change the Weather History Date:

Saturday, September 15, 2012

  Actual Average (KMBS) Record (KMBS)
Temperature  
Mean Temperature 58 °F -  
Max Temperature 71 °F 72 °F 84 °F (2004)
Min Temperature 44 °F 49 °F 39 °F (2007)
Degree Days  
Heating Degree Days 8    
Growing Degree Days 8 (Base 50)    
Moisture  
Dew Point 47 °F    
Average Humidity 71    
Maximum Humidity 100    
Minimum Humidity 38    
Precipitation  
Precipitation 0.00 in - - ()
Sea Level Pressure  
Sea Level Pressure 30.25 in    
Wind  
Wind Speed 3 mph (WNW)    
Max Wind Speed 8 mph    
Max Gust Speed -    
Visibility 10 miles    
Events      
Averages and records for this station are not official NWS values.
T = Trace of Precipitation, MM = Missing Value Source: NWS Daily Summary

Daily Weather History Graph

Daily Weather History Graph

Search for Another Location

Airport or City:

Trip Planner

Search our weather history database for the weather conditions in past years. The results will help you decide how hot, cold, wet, or windy it might be!

Date:

Astronomy

Sep. 15, 2012 Rise Set
Actual Time 7:15 AM EDT 7:44 PM EDT
Civil Twilight 6:46 AM EDT 8:13 PM EDT
Nautical Twilight 6:12 AM EDT 8:47 PM EDT
Astronomical Twilight 5:37 AM EDT 9:21 PM EDT
Moon 6:46 AM EDT (9/15) 7:12 PM EDT (9/15)
Length of Visible Light 13h 26m
Length of Day
12h 29m
Waning Crescent, 0% of the Moon is Illuminated
Sep 15
Waning Crescent
Sep 15
New
Sep 22
First Quarter
Sep 29
Full
Oct 8
Last Quarter

Hourly Weather History & Observations

Time (EDT) Temp. Windchill Dew Point Humidity Pressure Visibility Wind Dir Wind Speed Gust Speed Precip Events Conditions
12:33 AM 51.8 °F - 44.6 °F 76% 30.28 in 10.0 mi NW 3.5 mph - N/A   Clear
12:53 AM 50.0 °F - 42.8 °F 76% 30.28 in 10.0 mi NW 3.5 mph - N/A   Clear
1:13 AM 50.0 °F - 44.6 °F 82% 30.28 in 10.0 mi WNW 4.6 mph - N/A   Clear
1:33 AM 50.0 °F - 44.6 °F 82% 30.29 in 10.0 mi WNW 3.5 mph - N/A   Clear
1:53 AM 50.0 °F - 44.6 °F 82% 30.29 in 10.0 mi NW 4.6 mph - N/A   Clear
2:13 AM 50.0 °F - 42.8 °F 76% 30.29 in 10.0 mi NW 4.6 mph - N/A   Clear
2:34 AM 50.0 °F - 44.6 °F 82% 30.29 in 10.0 mi NW 4.6 mph - N/A   Clear
2:54 AM 48.2 °F - 44.6 °F 87% 30.28 in 10.0 mi WNW 4.6 mph - N/A   Clear
3:14 AM 48.2 °F - 44.6 °F 87% 30.28 in 10.0 mi WNW 3.5 mph - N/A   Clear
3:34 AM 48.2 °F - 44.6 °F 87% 30.28 in 10.0 mi WNW 3.5 mph - N/A   Clear
3:54 AM 46.4 °F 45.2 °F 44.6 °F 93% 30.28 in 10.0 mi WNW 3.5 mph - N/A   Clear
4:14 AM 46.4 °F 45.2 °F 44.6 °F 93% 30.29 in 10.0 mi WNW 3.5 mph - N/A   Clear
4:34 AM 46.4 °F - 44.6 °F 93% 30.29 in 10.0 mi Calm Calm - N/A   Clear
5:14 AM 44.6 °F - 44.6 °F 100% 30.29 in 10.0 mi Calm Calm - N/A   Clear
5:29 AM 46.4 °F 43.5 °F 44.6 °F 93% 30.30 in 10.0 mi West 5.8 mph - N/A   Clear
5:50 AM 46.4 °F - 44.6 °F 93% 30.30 in 10.0 mi Calm Calm - N/A   Clear
6:10 AM 46.4 °F 44.3 °F 44.6 °F 93% 30.30 in 10.0 mi West 4.6 mph - N/A   Clear
6:30 AM 44.6 °F 41.4 °F 44.6 °F 100% 30.31 in 10.0 mi West 5.8 mph - N/A   Clear
6:50 AM 46.4 °F 45.2 °F 44.6 °F 93% 30.31 in 10.0 mi West 3.5 mph - N/A   Clear
7:10 AM 44.6 °F 43.1 °F 44.6 °F 100% 30.31 in 10.0 mi West 3.5 mph - N/A   Clear
7:30 AM 44.6 °F 43.1 °F 44.6 °F 100% 30.32 in 10.0 mi West 3.5 mph - N/A   Clear
7:50 AM 46.4 °F - 44.6 °F 93% 30.32 in 10.0 mi Calm Calm - N/A   Clear
8:10 AM 50.0 °F - 48.2 °F 94% 30.33 in 10.0 mi Calm Calm - N/A   Scattered Clouds
8:30 AM 50.0 °F - 50.0 °F 100% 30.33 in 10.0 mi Calm Calm - N/A   Mostly Cloudy
8:51 AM 53.6 °F - 50.0 °F 88% 30.33 in 10.0 mi Calm Calm - N/A   Scattered Clouds
9:11 AM 55.4 °F - 50.0 °F 82% 30.33 in 10.0 mi Calm Calm - N/A   Clear
9:31 AM 57.2 °F - 50.0 °F 77% 30.33 in 10.0 mi Calm Calm - N/A   Clear
9:51 AM 59.0 °F - 50.0 °F 72% 30.33 in 10.0 mi WSW 3.5 mph - N/A   Clear
10:11 AM 60.8 °F - 50.0 °F 68% 30.33 in 10.0 mi Calm Calm - N/A   Clear
10:31 AM 62.6 °F - 50.0 °F 63% 30.32 in 10.0 mi WNW 4.6 mph - N/A   Clear
10:51 AM 62.6 °F - 46.4 °F 55% 30.32 in 10.0 mi NNW 6.9 mph - N/A   Clear
11:11 AM 62.6 °F - 48.2 °F 59% 30.32 in 10.0 mi WNW 4.6 mph - N/A   Clear
11:31 AM 62.6 °F - 46.4 °F 55% 30.31 in 10.0 mi Calm Calm - N/A   Clear
11:52 AM 64.4 °F - 48.2 °F 56% 30.31 in 10.0 mi WNW 4.6 mph - N/A   Clear
12:12 PM 64.4 °F - 48.2 °F 56% 30.30 in 10.0 mi Calm Calm - N/A   Clear
12:32 PM 64.4 °F - 50.0 °F 59% 30.29 in 10.0 mi West 3.5 mph - N/A   Clear
12:52 PM 66.2 °F - 46.4 °F 49% 30.29 in 10.0 mi West 3.5 mph - N/A   Scattered Clouds
1:12 PM 68.0 °F - 48.2 °F 49% 30.28 in 10.0 mi WNW 5.8 mph - N/A   Mostly Cloudy
1:32 PM 68.0 °F - 50.0 °F 52% 30.28 in 10.0 mi NW 8.1 mph - N/A   Overcast
1:52 PM 68.0 °F - 48.2 °F 49% 30.26 in 10.0 mi WNW 4.6 mph - N/A   Mostly Cloudy
2:12 PM 68.0 °F - 46.4 °F 46% 30.26 in 10.0 mi WNW 4.6 mph - N/A   Mostly Cloudy
2:53 PM 68.0 °F - 48.2 °F 49% 30.24 in 10.0 mi NNW 6.9 mph - N/A   Mostly Cloudy
3:13 PM 68.0 °F - 46.4 °F 46% 30.24 in 10.0 mi WNW 4.6 mph - N/A   Scattered Clouds
3:33 PM 68.0 °F - 44.6 °F 43% 30.23 in 10.0 mi NW 4.6 mph - N/A   Scattered Clouds
3:53 PM 69.8 °F - 46.4 °F 43% 30.22 in 10.0 mi NNW 5.8 mph - N/A   Mostly Cloudy
4:13 PM 69.8 °F - 46.4 °F 43% 30.21 in 10.0 mi NW 4.6 mph - N/A   Overcast
4:33 PM 69.8 °F - 48.2 °F 46% 30.21 in 10.0 mi NW 6.9 mph - N/A   Mostly Cloudy
4:53 PM 71.6 °F - 44.6 °F 38% 30.21 in 10.0 mi NNW 4.6 mph - N/A   Mostly Cloudy
5:13 PM 68.0 °F - 46.4 °F 46% 30.19 in 10.0 mi NW 6.9 mph - N/A   Scattered Clouds
5:34 PM 69.8 °F - 46.4 °F 43% 30.19 in 10.0 mi Calm Calm - N/A   Scattered Clouds
5:54 PM 69.8 °F - 46.4 °F 43% 30.19 in 10.0 mi Calm Calm - N/A   Clear
6:14 PM 69.8 °F - 46.4 °F 43% 30.18 in 10.0 mi SW 4.6 mph - N/A   Scattered Clouds
6:34 PM 68.0 °F - 46.4 °F 46% 30.17 in 10.0 mi SW 5.8 mph - N/A   Clear
6:54 PM 68.0 °F - 48.2 °F 49% 30.17 in 10.0 mi Calm Calm - N/A   Clear
7:14 PM 66.2 °F - 50.0 °F 56% 30.16 in 10.0 mi Calm Calm - N/A   Clear
7:34 PM 64.4 °F - 50.0 °F 59% 30.16 in 10.0 mi Calm Calm - N/A   Clear
7:49 PM 62.6 °F - 50.0 °F 63% 30.16 in 10.0 mi Calm Calm - N/A   Clear
8:10 PM 59.0 °F - 51.8 °F 77% 30.16 in 10.0 mi Calm Calm - N/A   Clear
8:30 PM 59.0 °F - 50.0 °F 72% 30.15 in 10.0 mi South 3.5 mph - N/A   Clear
8:50 PM 57.2 °F - 50.0 °F 77% 30.16 in 10.0 mi South 4.6 mph - N/A   Clear
9:10 PM 55.4 °F - 50.0 °F 82% 30.15 in 10.0 mi SSE 3.5 mph - N/A   Clear
9:30 PM 53.6 °F - 50.0 °F 88% 30.15 in 10.0 mi Calm Calm - N/A   Clear
9:50 PM 53.6 °F - 50.0 °F 88% 30.15 in 10.0 mi Calm Calm - N/A   Clear
10:10 PM 55.4 °F - 50.0 °F 82% 30.14 in 10.0 mi South 3.5 mph - N/A   Clear
10:30 PM 53.6 °F - 50.0 °F 88% 30.14 in 10.0 mi South 3.5 mph - N/A   Clear
10:50 PM 53.6 °F - 48.2 °F 82% 30.14 in 10.0 mi SSE 4.6 mph - N/A   Clear
11:11 PM 53.6 °F - 48.2 °F 82% 30.14 in 10.0 mi South 4.6 mph - N/A   Clear
11:31 PM 53.6 °F - 48.2 °F 82% 30.14 in 10.0 mi South 4.6 mph - N/A   Clear
11:51 PM 53.6 °F - 48.2 °F 82% 30.14 in 10.0 mi South 3.5 mph - N/A   Clear